Location: Grossmotten
(48.5500°N, 15.3833°E)
Time: 07:57:56
(UTC+00:00)

Cosmos 2228 Rocket - Pass Details

Date: 15 November 2019
Orbit: 619 x 651 km, 82.5° (Epoch: 08 December)

Event Time Altitude Azimuth Distance (km) Brightness Sun altitude
Rises 04:53:37 0° 352° (N) 2,977 6.3 -12.0°
Reaches altitude 10° 04:55:54 10° 355° (N) 2,065 5.5 -11.6°
Maximum altitude 05:00:28 68° 78° (ENE) 705 3.5 -10.9°
Drops below altitude 10° 05:05:02 10° 162° (SSE) 2,053 6.2 -10.2°
Sets 05:07:17 0° 165° (SSE) 2,959 7.0 -9.8°
